Simultaneous Nadir Overpasses (SNOs) Predictions

Prediction of SNOs between GOES-16 and METOP-C Satellite Orbit:

Table of predicted SNOs for the next 14.0 days since TLE Epoch: 7/20/2024
Index Date Time (GOES-16) GOES-16 Lat,Lon METOP-C Lat,Lon Distance(km) Time Diff (sec)
1 07/20/2024 14:38:32 0.01, -75.21 0.50, -77.27 235.39 80
2 07/21/2024 14:20:34 0.01, -75.21 -0.65, -72.28 333.86 80
3 07/23/2024 02:36:57 0.00, -75.21 -0.37, -76.89 190.26 80
4 07/24/2024 02:18:58 0.00, -75.22 0.73, -71.89 379.34 80
5 07/25/2024 14:35:12 -0.01, -75.24 0.25, -76.46 138.68 80
6 07/26/2024 14:17:14 -0.01, -75.26 -0.86, -71.47 431.55 80
7 07/28/2024 02:33:35 0.01, -75.27 -0.19, -76.06 90.85 80
8 07/29/2024 02:15:37 0.00, -75.28 0.92, -71.07 479.64 80
9 07/30/2024 14:31:51 -0.00, -75.31 0.05, -75.64 37.59 80
10 08/02/2024 02:30:13 -0.02, -75.35 -0.00, -75.24 12.35 80
